FLOCK 4V-17

Last updated on Thu Oct 29 2020 00:02:02 GMT+0000 (Coordinated Universal Time)

1 46529U 20061BF 20302.47273989 .00000893 00000-0 50037-4 0 9990 2 46529 97.4592 14.6010 0004552 65.8052 294.3656 15.15921333 3953
UTC large
Height (km)
Speed (km/s)
/
Latitude / Longitude
Inclination (degrees)
Orbital Period (minutes)
Azimuth
Elevation
Range (km)
Doppler Factor

Next 0 passes for location: London (51.5072 / 0.1276)

Sorry there are no passes over London.
FLOCK 4V-17